EN

Hourly Weather Alhos Vedros

Today, 28 January, Thursday

Time Temperature Precipitation Wind Pressure Humidity
00:00 +14°C° 0 mm 1 mps 767 mmHg 95%
01:00 +13°C° 0 mm 1 mps 766 mmHg 95%
02:00 +13°C° 0 mm 1 mps 766 mmHg 96%
03:00 +13°C° 0 mm 1 mps 765 mmHg 96%
04:00 +13°C° 0 mm 1 mps 765 mmHg 96%
05:00 +13°C° 0 mm 2 mps 765 mmHg 97%
06:00 +13°C° 0 mm 2 mps 765 mmHg 97%
07:00 +14°C° 0 mm 2 mps 765 mmHg 96%
08:00 +14°C° 0 mm 2 mps 765 mmHg 95%
09:00 +16°C° 0 mm 1 mps 766 mmHg 89%
10:00 +18°C° 0 mm 1 mps 766 mmHg 83%
11:00 +19°C° 0 mm 1 mps 766 mmHg 77%
12:00 +20°C° 0 mm 1 mps 765 mmHg 74%
13:00 +20°C° 0 mm 1 mps 765 mmHg 71%
14:00 +21°C° 0 mm 1 mps 764 mmHg 69%
15:00 +20°C° 0 mm 1 mps 764 mmHg 76%
16:00 +17°C° 0 mm 2 mps 764 mmHg 83%
17:00 +16°C° 0 mm 2 mps 764 mmHg 90%
18:00 +15°C° 0 mm 2 mps 765 mmHg 92%
19:00 +15°C° 0 mm 2 mps 765 mmHg 93%
20:00 +14°C° 0 mm 1 mps 765 mmHg 94%
21:00 +14°C° 0 mm 1 mps 765 mmHg 94%
22:00 +14°C° 0 mm 1 mps 765 mmHg 94%
23:00 +14°C° 0 mm 1 mps 765 mmHg 94%

Tomorrow, 29 January, Friday

Time Temperature Precipitation Wind Pressure Humidity
00:00 +13°C° 0 mm 1 mps 765 mmHg 94%
01:00 +13°C° 0 mm 1 mps 765 mmHg 94%
02:00 +12°C° 0 mm 0 mps 764 mmHg 94%
03:00 +12°C° 0 mm 0 mps 764 mmHg 94%
04:00 +12°C° 0 mm 0 mps 764 mmHg 94%
05:00 +12°C° 0 mm 0 mps 764 mmHg 94%
06:00 +12°C° 0 mm 0 mps 764 mmHg 93%
07:00 +14°C° 0 mm 1 mps 764 mmHg 92%
08:00 +14°C° 0 mm 1 mps 765 mmHg 91%
09:00 +15°C° 0 mm 1 mps 765 mmHg 86%
10:00 +16°C° 0 mm 2 mps 765 mmHg 82%
11:00 +17°C° 0 mm 2 mps 765 mmHg 77%
12:00 +17°C° 0 mm 2 mps 764 mmHg 77%
13:00 +17°C° 0 mm 3 mps 764 mmHg 77%
14:00 +17°C° 0 mm 3 mps 763 mmHg 78%
15:00 +17°C° 0 mm 4 mps 763 mmHg 80%
16:00 +15°C° 0 mm 4 mps 763 mmHg 82%
17:00 +15°C° 0 mm 4 mps 763 mmHg 84%
18:00 +15°C° 0 mm 4 mps 764 mmHg 85%
19:00 +14°C° 0 mm 4 mps 764 mmHg 86%
20:00 +14°C° 0 mm 4 mps 764 mmHg 87%
21:00 +15°C° 0 mm 5 mps 764 mmHg 87%
22:00 +15°C° 0 mm 5 mps 764 mmHg 87%
23:00 +15°C° 0 mm 5 mps 763 mmHg 87%

Day after tomorrow, 30 January, Saturday

Time Temperature Precipitation Wind Pressure Humidity
00:00 +15°C° 0 mm 6 mps 763 mmHg 88%
01:00 +15°C° 0 mm 6 mps 763 mmHg 89%
02:00 +15°C° 0 mm 6 mps 763 mmHg 91%
03:00 +14°C° 0.1 mm 6 mps 762 mmHg 92%
04:00 +14°C° 0.1 mm 5 mps 762 mmHg 92%
05:00 +13°C° 0.1 mm 4 mps 762 mmHg 93%
06:00 +13°C° 0 mm 4 mps 762 mmHg 91%
07:00 +13°C° 0 mm 5 mps 763 mmHg 89%
08:00 +13°C° 0 mm 5 mps 763 mmHg 87%
09:00 +14°C° 0 mm 5 mps 764 mmHg 80%
10:00 +15°C° 0 mm 6 mps 764 mmHg 73%
11:00 +15°C° 0 mm 6 mps 764 mmHg 66%
12:00 +15°C° 0 mm 7 mps 764 mmHg 66%
13:00 +15°C° 0 mm 7 mps 763 mmHg 66%
14:00 +15°C° 0 mm 7 mps 763 mmHg 66%
15:00 +14°C° 0 mm 7 mps 763 mmHg 68%
16:00 +12°C° 0 mm 7 mps 764 mmHg 71%
17:00 +11°C° 0 mm 6 mps 764 mmHg 73%
18:00 +11°C° 0 mm 6 mps 764 mmHg 76%
19:00 +10°C° 0 mm 5 mps 765 mmHg 78%
20:00 +10°C° 0 mm 5 mps 765 mmHg 81%
21:00 +11°C° 0 mm 4 mps 765 mmHg 82%
22:00 +11°C° 0 mm 4 mps 765 mmHg 84%
23:00 +10°C° 0 mm 4 mps 765 mmHg 86%

31 January, Sunday

Time Temperature Precipitation Wind Pressure Humidity
00:00 +10°C° 0 mm 4 mps 765 mmHg 87%
01:00 +11°C° 0 mm 3 mps 765 mmHg 88%
02:00 +11°C° 0 mm 3 mps 765 mmHg 88%
03:00 +11°C° 0 mm 3 mps 765 mmHg 89%
04:00 +11°C° 0 mm 3 mps 764 mmHg 90%
05:00 +11°C° 0 mm 3 mps 764 mmHg 91%
06:00 +11°C° 0 mm 3 mps 764 mmHg 90%
07:00 +12°C° 0 mm 4 mps 765 mmHg 89%
08:00 +12°C° 0 mm 4 mps 765 mmHg 88%
09:00 +14°C° 0 mm 5 mps 765 mmHg 83%
10:00 +15°C° 0 mm 5 mps 765 mmHg 77%
11:00 +16°C° 0 mm 6 mps 765 mmHg 72%
12:00 +16°C° 0 mm 6 mps 764 mmHg 76%
13:00 +15°C° 0 mm 5 mps 764 mmHg 79%
14:00 +15°C° 0 mm 5 mps 763 mmHg 83%
15:00 +15°C° 0 mm 5 mps 763 mmHg 86%
16:00 +15°C° 0 mm 5 mps 763 mmHg 89%
17:00 +14°C° 0 mm 4 mps 763 mmHg 92%
18:00 +14°C° 0 mm 4 mps 763 mmHg 92%
19:00 +14°C° 0 mm 5 mps 764 mmHg 93%
20:00 +15°C° 0 mm 5 mps 764 mmHg 93%
21:00 +15°C° 0 mm 4 mps 764 mmHg 94%
22:00 +15°C° 0 mm 4 mps 764 mmHg 95%
23:00 +15°C° 0 mm 4 mps 764 mmHg 95%

1 February, Monday

Time Temperature Precipitation Wind Pressure Humidity
00:00 +16°C° 0 mm 3 mps 764 mmHg 95%
01:00 +16°C° 0 mm 3 mps 764 mmHg 94%
02:00 +14°C° 0 mm 3 mps 764 mmHg 93%
03:00 +14°C° 0 mm 3 mps 764 mmHg 93%
04:00 +14°C° 0 mm 2 mps 763 mmHg 92%
05:00 +14°C° 0 mm 2 mps 763 mmHg 92%
06:00 +14°C° 0 mm 1 mps 764 mmHg 91%
07:00 +14°C° 0 mm 1 mps 764 mmHg 90%
08:00 +13°C° 0 mm 0 mps 764 mmHg 88%
09:00 +15°C° 0 mm 1 mps 764 mmHg 82%
10:00 +18°C° 0 mm 1 mps 765 mmHg 76%
11:00 +18°C° 0 mm 2 mps 765 mmHg 70%
12:00 +18°C° 0 mm 2 mps 764 mmHg 70%
13:00 +18°C° 0 mm 2 mps 764 mmHg 70%
14:00 +19°C° 0 mm 3 mps 763 mmHg 70%
15:00 +18°C° 0 mm 3 mps 764 mmHg 76%
16:00 +17°C° 0 mm 3 mps 764 mmHg 82%
17:00 +16°C° 0 mm 3 mps 764 mmHg 88%
18:00 +14°C° 0 mm 3 mps 764 mmHg 89%
19:00 +14°C° 0 mm 3 mps 764 mmHg 90%
20:00 +13°C° 0 mm 3 mps 764 mmHg 91%
21:00 +14°C° 0 mm 2 mps 764 mmHg 91%
22:00 +14°C° 0 mm 2 mps 764 mmHg 90%
23:00 +13°C° 0 mm 2 mps 764 mmHg 89%

2 February, Tuesday

Time Temperature Precipitation Wind Pressure Humidity
00:00 +14°C° 0 mm 2 mps 764 mmHg 87%
01:00 +14°C° 0 mm 2 mps 764 mmHg 86%
02:00 +14°C° 0 mm 2 mps 764 mmHg 84%
03:00 +14°C° 0 mm 2 mps 764 mmHg 84%
04:00 +14°C° 0 mm 2 mps 763 mmHg 83%
05:00 +15°C° 0 mm 2 mps 763 mmHg 82%
06:00 +15°C° 0 mm 2 mps 763 mmHg 82%
07:00 +15°C° 0 mm 2 mps 763 mmHg 82%
08:00 +15°C° 0 mm 2 mps 764 mmHg 82%
09:00 +16°C° 0 mm 3 mps 763 mmHg 78%
10:00 +16°C° 0 mm 3 mps 763 mmHg 75%
11:00 +17°C° 0 mm 4 mps 763 mmHg 72%
12:00 +17°C° 0 mm 4 mps 762 mmHg 73%
13:00 +17°C° 0 mm 4 mps 762 mmHg 73%
14:00 +16°C° 0 mm 5 mps 761 mmHg 74%
15:00 +15°C° 0 mm 4 mps 761 mmHg 78%
16:00 +14°C° 0 mm 4 mps 761 mmHg 81%
17:00 +14°C° 0 mm 4 mps 761 mmHg 85%
18:00 +14°C° 0 mm 4 mps 761 mmHg 86%
19:00 +14°C° 0 mm 4 mps 761 mmHg 87%
20:00 +14°C° 0 mm 4 mps 761 mmHg 88%
21:00 +14°C° 0 mm 4 mps 761 mmHg 88%
22:00 +14°C° 0 mm 4 mps 760 mmHg 88%
23:00 +14°C° 0 mm 4 mps 760 mmHg 88%
Show more